Zurück zum Katalog

ARIANE 42L+3 R/B

AktivGTO
NORAD 23637·ROCKET BODY·🇫🇷 France

Gestartet Aug 3, 1995 von Guiana Space Centre

Loading…

TLE

AlterndSource: Space-Track

Epoche: Sep 14, 2026, 04:07 UTC

1 23637U 95040B   26257.17161266 -.00000113  00000-0  10961-2 0  9996
2 23637   4.5987 306.9618 7202701  73.4243 349.5015  2.18791414248537

Verfolge ARIANE 42L+3 R/B in Echtzeit mit AllMySat

Download on the App Store